This is the latest recevied weather packets stored in our database for station/object KD0SBN-3. If no packets are shown the sender has not sent any weather packets the latest 10 day(s).
| Time | Temp. | Humidity | Pressure | Rain* | Wind** | Luminosity | Snow |
|---|---|---|---|---|---|---|---|
| 1777888663 | 7.78° C | 41% | 1022.8 hPa | 0 mm | - | 0 W/m² | - |
| 1777888358 | 8.33° C | 40% | 1023.2 hPa | 0 mm | - | 0 W/m² | - |
| 1777888055 | 7.78° C | 40% | 1023 hPa | 0 mm | - | 0 W/m² | - |
| 1777887752 | 7.78° C | 40% | 1022.9 hPa | 0 mm | - | 0 W/m² | - |
| 1777887449 | 7.78° C | 42% | 1022.9 hPa | 0 mm | - | 0 W/m² | - |
| 1777887144 | 7.78° C | 41% | 1022.9 hPa | 0 mm | - | 0 W/m² | - |
| 1777886841 | 8.33° C | 40% | 1022.9 hPa | 0 mm | - | 0 W/m² | - |
| 1777886537 | 8.33° C | 39% | 1022.8 hPa | 0 mm | - | 0 W/m² | - |
| 1777886235 | 8.33° C | 39% | 1023 hPa | 0 mm | - | 0 W/m² | - |
| 1777885932 | 8.33° C | 38% | 1023.4 hPa | 0 mm | - | 0 W/m² | - |
| 1777885631 | 7.78° C | 37% | 1023 hPa | 0 mm | - | 0 W/m² | - |
| 1777885329 | 8.33° C | 37% | 1023.3 hPa | 0 mm | - | 0 W/m² | - |
| 1777885027 | 8.33° C | 36% | 1023.2 hPa | 0 mm | - | 0 W/m² | - |
| 1777884722 | 8.89° C | 37% | 1023.3 hPa | 0 mm | - | 0 W/m² | - |
| 1777884419 | 8.33° C | 37% | 1023.3 hPa | 0 mm | - | 0 W/m² | - |
| 1777884116 | 8.33° C | 38% | 1023.2 hPa | 0 mm | - | 0 W/m² | - |
| 1777883813 | 8.33° C | 39% | 1023.4 hPa | 0 mm | - | 0 W/m² | - |
| 1777883510 | 8.33° C | 39% | 1023.6 hPa | 0 mm | - | 0 W/m² | - |
| 1777883205 | 8.33° C | 39% | 1023.6 hPa | 0 mm | - | 0 W/m² | - |
| 1777882902 | 8.89° C | 38% | 1023.4 hPa | 0 mm | - | 0 W/m² | - |
| 1777882599 | 8.89° C | 37% | 1023.4 hPa | 0 mm | - | 0 W/m² | - |
| 1777882295 | 9.44° C | 36% | 1023.7 hPa | 0 mm | - | 0 W/m² | - |
| 1777881992 | 8.89° C | 34% | 1023.7 hPa | 0 mm | - | 0 W/m² | - |
| 1777881688 | 8.89° C | 35% | 1023.7 hPa | 0 mm | - | 0 W/m² | - |
| 1777881385 | 8.89° C | 35% | 1023.8 hPa | 0 mm | - | 0 W/m² | - |
* Rain latest hour (hover to see other rain measurements)
** Current wind speed in m/s (hover to see current wind gust speed)